Regional Weather Roundup
Issued by NWS Wakefield, VA

Home | Current Version | Previous Version | Text Only | Print | Product List | Glossary Off
Versions: 1 2 3 4 5 6 7 8 9 10 11 12 13 14 15 16 17 18 19 20 21 22 23 24 25 26 27 28

000
ASUS41 KAKQ 211915
RWRAKQ

REGIONAL WEATHER ROUNDUP
NATIONAL WEATHER SERVICE WAKEFIELD VA
300 PM EDT MON AUG 21 2017

Note: "fair" indicates few or no clouds below 12,000 feet with no
significant weather and/or obstructions to visibility. * = Denotes
station may not report precipitation (e.g., rain,snow,etc.),
thunder or fog.

VAZ042-051-052>054-056-212000-
NORTHERN VIRGINIA

CITY           SKY/WX    TMP DP  RH WIND       PRES   REMARKS
WASH NATIONAL  PTSUNNY   87  76  69 S9        30.13F HX  97
DULLES         MOSUNNY   86  74  67 SW5       30.13F
FORT BELVOIR   MOSUNNY   85  77  75 CALM      30.13F HX  95
QUANTICO       CLOUDY    86  79  79 SE6       30.14F THUNDER HX  99
FREDERICKSBRG* SUNNY     87  76  69 S7        30.12F HX  98
STAFFORD*      MOSUNNY   85  74  69 SE3       30.17F
WARRENTON      CLOUDY    86  71  59 E7        30.12F
CULPEPER*      MOSUNNY   89  74  61 S6        30.13F HX  97
MANASSAS*      LGT RAIN  77  71  82 SE13      30.14F
LEESBURG*      SUNNY     88  77  70 CALM      30.14F HX 100
WINCHESTER     CLOUDY    81  70  69 CALM      30.15F
FRONT ROYAL*   CLEAR     86  73  66 CALM      30.13F
LURAY*         LGT RAIN  86  68  54 SW12      30.16S
$$

VAZ048-049-060>072-079>083-212000-
CENTRAL AND SOUTH CENTRAL VIRGINIA

CITY           SKY/WX    TMP DP  RH WIND       PRES   REMARKS
RICHMOND       MOSUNNY   85  74  69 S8        30.15F
CHESTERFIELD*  FAIR      85  73  67 S9        30.16F
PETERSBURG*    SUNNY     83  71  66 S3        30.17F
HANOVER        SUNNY     86  71  60 S7        30.15F
TAPPAHANNOCK*  MOSUNNY   86  67  51 S5        30.15F
QUINTON*       FAIR     N/A N/A N/A SE5       30.15F
CHARLOTTSVILLE CLOUDY    82  63  52 SW13G21   30.15F
GORDONSVILLE*  PTCLDY    85  76  75 CALM      30.13F
ORANGE*        MOSUNNY   86  70  58 CALM      30.13F
LOUISA*        CLOUDY    81  70  69 SE5       30.15F
BUMPASS*       MOCLDY    77  70  79 CALM      30.15S
FARMVILLE*     PTSUNNY   87  67  52 S6        30.14F
CREWE*         CLOUDY    83  68  59 S3        30.17F
FORT PICKETT*  MOCLDY   N/A N/A N/A S7        30.17F
CHASE CITY*    FAIR      85  72  64 SE3       30.18F
CLARKSVILLE*   FAIR      82  73  74 CALM      30.18F
SOUTH HILL*    SUNNY     82  74  78 SE3       30.24F
LAWRENCEVILLE* FAIR      83  72  70 CALM      30.18F
EMPORIA*       SUNNY     82  73  74 SE5       30.19F
$$

VAZ088>098-212000-
SOUTHEAST VIRGINIA

CITY           SKY/WX    TMP DP  RH WIND       PRES   REMARKS
NORFOLK        MOSUNNY   86  70  58 S8        30.18F
VIRGINIA BEACH MOSUNNY   81  71  71 SE8       30.18F
NORFOLK NAVAL  MOSUNNY   86  68  54 SE6       30.18F
WEST POINT*    SUNNY     84  73  70 SE7       30.17F
SALUDA*        FAIR      82  76  80 S7        30.16F
NEWPORT NEWS   SUNNY     85  70  60 S8        30.17F
LANGLEY AFB    SUNNY     84  74  72 E9        30.17F
FORT EUSTIS    SUNNY     86  74  66 SE6       30.14F
WILLIAMSBURG*  SUNNY     86  75  70 CALM      30.17F HX  95
HR EXEC AP*    FAIR      84  72  65 SE6       30.15F
FRANKLIN*      MOSUNNY   84  73  69 S7        30.18F
US460-WAKEFLD  SUNNY     84  74  71 CALM      30.17F
$$

VAZ020-022-025-037-045-212000-
WEST CENTRAL AND SOUTHWEST VIRGINIA

CITY           SKY/WX    TMP DP  RH WIND       PRES   REMARKS
STAUNTON*      SUNNY     83  67  57 SW6       30.20S
WAYNESBORO*    CLOUDY    84  66  54 SW5       30.20F
HOT SPRINGS VA MOSUNNY   73  59  60 CALM      30.36F
LYNCHBURG      MOSUNNY   85  67  54 S7        30.18F
DANVILLE       MOSUNNY   79  69  71 E6        30.18F
SOUTH BOSTON*  FAIR      84  72  67 CALM      30.17F
MARTINSVILLE   PTSUNNY   80  73  79 CALM      30.21F
ROANOKE        PTSUNNY   88  66  48 CALM      30.20F
BLACKSBURG     SUNNY     79  66  64 W3        30.28F
DUBLIN*        SUNNY     83  68  60 CALM      30.26F
MARION*        SUNNY     79  31  17 CALM      30.30F
HILLSVILLE*    PTSUNNY   77  65  68 CALM      30.29F
RICHLANDS*     FAIR      78  59  50 CALM      30.29F
WISE*          SUNNY     79  64  61 S6        30.30F
ABINGDON*      SUNNY     81  71  70 CALM      30.26F
$$

MDZ021>025-VAZ099-100-212000-
SOUTHERN MARYLAND AND THE DELMARVA PENINSULA

CITY           SKY/WX    TMP DP  RH WIND       PRES   REMARKS
PATUXENT RIVER MOSUNNY   82  76  81 SE13      30.15F
BAY BRIDGE APT SUNNY     84  75  74 S10       30.14F
LEONARDTOWN    MOSUNNY   82  75  78 SE6       30.16F
DOVER          PTSUNNY   81  73  78 E7        30.14F
GEORGETOWN     MOSUNNY   83  71  67 S9        30.17F
EASTON         NOT AVBL
CAMBRIDGE      SUNNY     82  73  74 S9G15     30.16F
SALISBURY      MOSUNNY   82  73  74 S8        30.17F
OCEAN CITY     SUNNY     78  71  79 S9        30.20F
WALLOPS ISLAND MOSUNNY   79  72  79 S13       30.19F
ACCOMACK*      SUNNY     80  74  82 S8        30.18F
$$

NCZ012>017-030>032-212000-
NORTH CENTRAL AND EASTERN NORTH CAROLINA

CITY           SKY/WX    TMP DP  RH WIND       PRES   REMARKS
ROANOKE RAPIDS FAIR      81  73  78 CALM      30.19F
RALEIGH        MOSUNNY   88  69  53 SE6       30.18F
ELIZABETH CITY SUNNY     83  71  67 SE6       30.19F
AHOSKIE*         N/A     83  73  71 CALM      30.19F
EDENTON*       SUNNY     85  76  75 CALM      30.19F
CURRITUCK*     SUNNY     83  74  73 E5        30.20F
KILL DEVIL HLS SUNNY     81  75  81 CALM      30.18F
MANTEO         MOSUNNY   82  75  79 E7        30.19F
CAPE HATTERAS  CLOUDY    85  77  77 S7        30.18F HX  95
TARBORO*       NOT AVBL
GOLDSBORO      MOSUNNY   85  75  71 E5        30.16F
WASHINGTON     SUNNY     84  70  63 SE6       30.18F
GREENVILLE     SUNNY     86  70  58 E6        30.19F
NEW BERN       CLOUDY    83  75  77 SE6       30.18F
WILMINGTON     PTSUNNY   82  74  76 E6        30.17F
$$

VAZ048-212000-
ELSEWHERE

CITY           SKY/WX    TMP DP  RH WIND       PRES   REMARKS
HARRISBURG PA  PTSUNNY   84  75  74 SW6       30.12F
BALTIMORE      MOSUNNY   84  77  79 SE8       30.12F
ANNAPOLIS      PTSUNNY   84  80  88 S12       30.13F HX  97
ANDREWS AFB    MOSUNNY   85  74  68 S10       30.13F
PHILADELPHIA   PTSUNNY   84  67  56 S10       30.15F
HENDERSON NC   SUNNY     82  67  61 S3        30.20F
GREENSBORO     PTSUNNY   76  69  79 E7        30.19F
ROCKY MOUNT    SUNNY     82  74  76 CALM      30.18F
$$

VAZ100-212000-
MARINE

STATION/POSITION TIME  TEMP    WIND        PRES    WAVE   SWELL
                       AIR SEA DIR/SP/G            HT/PER HT/PER
                 (UTC) (F)     (DEG/KT/KT) (MB)    (FT/S) (FT/S)
BRANDYWINE LGT   1842   77     170/ 19/ 21 1022.1F
CAPE MAY NJ      1848   77 79  170/  9/ 14 1021.4F
LEWES DE         1848   80 78  150/  9/ 12 1021.5F
15NM E FENWICK I 1850   78 79  170/ 16/ 17 1022.7F   2/ 8   2/ 8
OCEAN-CITY-INLET 1848   79 81  200/ 10/ 14 1022.8F
WACHAPREAGUE VA  1848   80 86  180/ 11/ 13 1022.4F
THOMAS POINT MD  1900   81 81  160/ 15/ 17   N/A
GOOSES REEF MD   1900   82 81  160/ 17/ 19 1021.2    2/ 3
COVE POINT MD    1848   81     180/ 18/ 21 1021.8F
SOLOMONS ISLAND  1842   82 83  130/ 13/ 15   N/A
BISHOPS HEAD MD  1848   82 84  160/ 15/ 18 1021.7F
PINEY POINT MD   1848          160/ 15/ 17   N/A
POTOMAC MD       1900   82 82  180/ 16/ 17 1020.5    2/ 3
CAMBRIDGE MD     1848   83 84              1022.2F
LEWISETTA VA     1848   84 85  170/ 11/ 14 1021.0F
RAPPAHANNOCK LGT 1848          170/ 13/ 15 1022.6F
STINGRAY PT      1900   82 82  200/ 14/ 17 1021.7    2/ 3
YORK RVR RNG VA  1848   81     150/ 14/ 16 1022.1F
YORKTOWN VA      1848   83 83  120/ 11/ 12 1021.3F
JAMESTOWN VA     1900      86  140/ 10/ 14   N/A     0
DOMINION TERM VA 1848   86     150/  7/  8 1021.8F
KIPTOPEKE VA     1848      82  150/ 10/ 12   N/A
CHES BAY BRIDGE  1848   82 82  150/  5/ 11 1022.0F
CAPE HENRY VA    1848   80     130/  9/ 13   N/A
WILLOUBY STN VA  1836   86     220/  7/  9 1022.0F
S CRANEY ISL VA  1848   87     170/  5/  8 1021.9F
CAPE HENRY BUOY  1830      82                N/A     2/ 8
1ST LANDING BUOY 1900   81 81              1021.7    1/ 3
64NM E OF VA BCH 1850   79 80  100/  4/  6 1023.1F   2/ 8   2/ 8
DUCK PIER NC     1848   81 78  110/  7/  7 1021.9F
44100 DUCK FRF   1805      82                N/A     2/ 8
44056 DUCK FRF   1830      82                N/A     2/11
OREGON INLET NC  1836   81 77   60/  5/  7 1022.2F
HATTERAS NC      1848   83 80  120/  5/  7 1022.1F
DIAMOND SHLS NC  1850   82 85  180/  2/  4 1021.9F   2/ 8   2/ 8
CAPE LOOKOUT NC  1900   80     130/  2/  3 1021.6F
$$




USA.gov is the U.S. government's official web portal to all federal, state and local government web resources and services.